Content
SEND FEEDBACK

Daily
Averages
Monthly
Summary
Netherlands

AMSTERDAM, NETHERLANDS


Home > Europe > Netherlands
Elevation: 7 feet     Latitude: 52 18N     Longitude: 004 46E

WEATHER
 
SELECT A DAY
Number of Records: 303,193;   Date Range: 7/1/96 - 8/31/14
 
SHARE

PRINT THIS DATA

[ ← Previous Day ]
WEATHER ALMANAC - APRIL 7, 2014
[ Next Day → ]
[ °C ]   °F
Weather ElementAverageHighLow
Temperature58.7 °F69 °F (4:00 pm)51.8 °F (3:55 am)
Dewpoint53.7 °F55.4 °F (8:25 am)51 °F (4:00 am)
Humidity83.5 %100 % (3:55 am)50 % (5:00 pm)
Barometer29.88 in30.01 in (1:00 am)29.71 in (9:55 pm)
Wind Speed11.3 mph27.6 mph (6:25 pm)
Weather ElementAverage
Visibility9 mi
Wind DirectionSSW (196.2 °)

Weather ElementTotal
Precipitation---
Heating Degree Days4.6 (Base 65)
Growing Degree Days10.4 (Base 50)
Averaged from 71 records on April 7, 2014
WEATHER CONDITIONS BREAKOUT
WIND DIRECTION BREAKOUT
WEATHER BY HOUR - APRIL 7, 2014
[ °C ]   °F
Local TimeTemperatureDewpointHumidityBarometerVisibilityWind DirectionWind SpeedGust SpeedPrecipitationEventsConditions
12:25 AM53.6 °F51.8 °F94 %29.98 inSSW (200°)8.1 mphClear
12:55 AM55.4 °F51.8 °F88 %29.98 inSSW (210°)9.2 mphClear
1:00 AM55.0 °F52.0 °F88 %30.01 in9.0 miSSW (210°)8.9 mphPartly Cloudy
1:25 AM53.6 °F51.8 °F94 %29.98 inSSW (200°)8.1 mphClear
1:55 AM53.6 °F51.8 °F94 %29.98 inSouth (170°)6.9 mphClear
2:00 AM54.0 °F52.0 °F90 %30.00 in7.0 miSouth (170°)8.9 mphPartly Cloudy
2:25 AM55.4 °F51.8 °F88 %29.98 inSouth (190°)8.1 mphClear
2:55 AM53.6 °F51.8 °F94 %29.98 inSouth (190°)8.1 mphClear
3:00 AM54.0 °F52.0 °F91 %30.00 in11.0 miSouth (190°)6.7 mphScattered Clouds
3:25 AM53.6 °F51.8 °F94 %29.98 inSouth (190°)8.1 mphClear
3:55 AM51.8 °F51.8 °F100 %29.98 inSouth (180°)6.9 mphClear
4:00 AM53.0 °F51.0 °F91 %29.99 in11.0 miSouth (180°)6.7 mphMostly Cloudy
4:25 AM53.6 °F51.8 °F94 %29.98 inSouth (180°)8.1 mphClear
4:55 AM53.6 °F51.8 °F94 %29.98 in6.2 miSouth (190°)8.1 mphPartly Cloudy
5:00 AM53.0 °F51.0 °F92 %29.99 in9.0 miSouth (190°)6.7 mphScattered Clouds
5:25 AM53.6 °F51.8 °F94 %29.98 in6.2 miSouth (190°)6.9 mphPartly Cloudy
5:55 AM53.6 °F51.8 °F94 %29.95 in6.2 miSouth (180°)6.9 mphPartly Cloudy
6:00 AM54.0 °F53.0 °F93 %29.97 in7.0 miSouth (170°)8.9 mphPartly Cloudy
6:25 AM55.4 °F53.6 °F94 %29.95 in6.2 miSouth (180°)8.1 mphPartly Cloudy
6:55 AM55.4 °F53.6 °F94 %29.95 in5.6 miSouth (180°)9.2 mph
7:00 AM55.0 °F54.0 °F94 %29.97 in6.0 miSouth (170°)8.9 mphOvercast
7:25 AM55.4 °F53.6 °F94 %29.95 in6.2 miSouth (180°)9.2 mphRainLight Rain
7:55 AM55.4 °F53.6 °F94 %29.95 in6.2 miSouth (180°)9.2 mphPartly Cloudy
8:00 AM56.0 °F54.0 °F92 %29.97 in6.0 miSouth (180°)8.9 mphPartly Cloudy
8:25 AM55.4 °F55.4 °F100 %29.95 inSouth (180°)9.2 mphClear
8:55 AM57.2 °F55.4 °F94 %29.95 in6.2 miSouth (180°)10.4 mphPartly Cloudy
9:00 AM57.0 °F55.0 °F91 %29.96 in7.0 miSouth (180°)11.2 mphScattered Clouds
9:25 AM59.0 °F55.4 °F88 %29.95 in6.2 miSouth (180°)11.5 mphPartly Cloudy
9:55 AM59.0 °F55.4 °F88 %29.95 in6.2 miSSW (200°)13.8 mphPartly Cloudy
10:00 AM60.0 °F55.0 °F80 %29.96 in13.0 miSSW (200°)13.4 mphOvercast
10:25 AM60.8 °F55.4 °F82 %29.95 in6.2 miSouth (190°)13.8 mphPartly Cloudy
10:55 AM60.8 °F55.4 °F82 %29.95 in6.2 miSSW (200°)12.7 mphPartly Cloudy
11:00 AM61.0 °F55.0 °F74 %29.96 in16.0 miSSW (200°)13.4 mphOvercast
11:25 AM62.6 °F55.4 °F77 %29.95 in6.2 miSSW (200°)13.8 mphPartly Cloudy
11:55 AM64.4 °F55.4 °F73 %29.92 in6.2 miSSW (200°)12.7 mphPartly Cloudy
12:00 PM64.0 °F54.0 °F63 %29.95 in22.0 miSSW (210°)13.4 mphOvercast
12:25 PM64.4 °F55.4 °F73 %29.92 in6.2 miSSW (200°)13.8 mphPartly Cloudy
12:55 PM64.4 °F53.6 °F68 %29.92 in6.2 miSSW (200°)15.0 mphPartly Cloudy
1:00 PM65.0 °F54.0 °F59 %29.92 in22.0 miSSW (200°)15.7 mphOvercast
1:25 PM68.0 °F55.4 °F64 %29.89 in6.2 miSSW (210°)13.8 mphPartly Cloudy
1:55 PM66.2 °F53.6 °F64 %29.89 in6.2 miSSW (200°)13.8 mphScattered Clouds
2:00 PM65.0 °F54.0 °F60 %29.90 in22.0 miSSW (200°)13.4 mphPartly Cloudy
2:25 PM66.2 °F53.6 °F64 %29.86 in6.2 miSouth (190°)15.0 mphScattered Clouds
2:55 PM66.2 °F55.4 °F68 %29.86 in6.2 miSouth (170°)15.0 mphScattered Clouds
3:00 PM66.0 °F55.0 °F60 %29.86 in19.0 miSSE (160°)15.7 mphRainRain
3:25 PM66.2 °F55.4 °F68 %29.83 in6.2 miSouth (180°)11.5 mphScattered Clouds
3:55 PM68.0 °F55.4 °F64 %29.83 in6.2 miSouth (170°)15.0 mphScattered Clouds
4:00 PM69.0 °F55.0 °F51 %29.83 in19.0 miSouth (170°)13.4 mphPartly Cloudy
4:25 PM68.0 °F53.6 °F60 %29.80 in6.2 miSouth (180°)16.1 mphPartly Cloudy
4:55 PM68.0 °F53.6 °F60 %29.77 in6.2 miSSE (160°)15.0 mphPartly Cloudy
5:00 PM68.0 °F53.0 °F50 %29.78 in22.0 miSouth (170°)17.9 mphPartly Cloudy
5:25 PM68.0 °F55.4 °F64 %29.74 in6.2 miSSE (150°)12.7 mphPartly Cloudy
5:55 PM68.0 °F53.6 °F60 %29.74 in6.2 miSouth (170°)15.0 mphPartly Cloudy
6:00 PM68.0 °F54.0 °F51 %29.75 in22.0 miSouth (170°)15.7 mphPartly Cloudy
6:25 PM55.4 °F53.6 °F94 %29.77 in1.6 miWest (280°)27.6 mphRainRain Showers
6:55 PM55.4 °F53.6 °F94 %29.77 in4.3 miWest (270°)19.6 mphRainLight Rain Showers
7:00 PM55.0 °F54.0 °F94 %29.77 in4.0 miWest (280°)15.7 mphRainRain Showers
7:25 PM55.4 °F53.6 °F94 %29.74 in6.2 miWNW (290°)5.8 mphMostly Cloudy
7:55 PM55.4 °F53.6 °F94 %29.74 in6.2 miWest (270°)5.8 mphRainLight Rain Showers
8:00 PM56.0 °F54.0 °F89 %29.77 in22.0 miWest (260°)8.9 mphRainLight Rain Showers
8:25 PM55.4 °F53.6 °F94 %29.74 in6.2 miWest (270°)11.5 mphRainLight Rain Showers
8:55 PM55.4 °F53.6 °F94 %29.74 in4.3 miSW (230°)11.5 mphRainLight Rain Showers
9:00 PM55.0 °F54.0 °F94 %29.77 in4.0 miSW (220°)13.4 mphRainRain
9:25 PM55.4 °F53.6 °F94 %29.74 in4.3 miSSW (200°)10.4 mphRainLight Rain Showers
9:55 PM55.4 °F53.6 °F94 %29.71 in6.2 miSouth (170°)9.2 mphPartly Cloudy
10:00 PM55.0 °F54.0 °F96 %29.73 in22.0 miSouth (170°)8.9 mphRainLight Rain
10:25 PM55.4 °F53.6 °F94 %29.71 in6.2 miSouth (190°)9.2 mphPartly Cloudy
10:55 PM55.4 °F53.6 °F94 %29.71 in6.2 miSSW (200°)9.2 mphScattered Clouds
11:00 PM56.0 °F54.0 °F92 %29.73 in22.0 miSSW (200°)8.9 mphRainRain
11:25 PM55.4 °F55.4 °F100 %29.71 in6.2 miSSW (210°)10.4 mphOvercast
11:55 PM55.4 °F53.6 °F94 %29.71 in6.2 miSSW (200°)9.2 mphPartly Cloudy
Hourly data recorded from EHAM, located miles away from Amsterdam, Netherlands







STORIES FROM OUR PARTNERS